This is the latest recevied weather packets stored in our database for station/object KQ7A. If no packets are shown the sender has not sent any weather packets the latest 10 day(s).
| Time | Temp. | Humidity | Pressure | Rain* | Wind** | Luminosity | Snow |
|---|---|---|---|---|---|---|---|
| 1788257378 | 15.56° C | 34% | 1015 hPa | 0 mm | - | 0 W/m² | - |
| 1788257072 | 15° C | 34% | 1014.8 hPa | 0 mm | - | 0 W/m² | - |
| 1788256766 | 15° C | 37% | 1014.8 hPa | 0 mm | - | 0 W/m² | - |
| 1788256465 | 15° C | 35% | 1014.8 hPa | 0 mm | - | 0 W/m² | - |
| 1788256164 | 14.44° C | 36% | 1014.8 hPa | 0 mm | - | 0 W/m² | - |
| 1788255864 | 15° C | 36% | 1015 hPa | 0 mm | - | 0 W/m² | - |
| 1788255564 | 15.56° C | 34% | 1015.1 hPa | 0 mm | - | 0 W/m² | - |
| 1788255258 | 16.11° C | 34% | 1015 hPa | 0 mm | - | 0 W/m² | - |
| 1788254953 | 16.11° C | 29% | 1015 hPa | 0 mm | - | 0 W/m² | - |
| 1788254649 | 15° C | 33% | 1015 hPa | 0 mm | - | 0 W/m² | - |
| 1788254345 | 15.56° C | 35% | 1015 hPa | 0 mm | - | 0 W/m² | - |
| 1788254044 | 15° C | 36% | 1015 hPa | 0 mm | - | 0 W/m² | - |
| 1788253740 | 15° C | 37% | 1015 hPa | 0 mm | - | 0 W/m² | - |
| 1788253434 | 15.56° C | 34% | 1015.1 hPa | 0 mm | - | 0 W/m² | - |
| 1788253130 | 15° C | 33% | 1014.8 hPa | 0 mm | - | 0 W/m² | - |
| 1788252825 | 15.56° C | 38% | 1014.8 hPa | 0 mm | - | 0 W/m² | - |
| 1788252522 | 16.11° C | 32% | 1014.6 hPa | 0 mm | - | 0 W/m² | - |
| 1788252217 | 16.11° C | 31% | 1015 hPa | 0 mm | - | 0 W/m² | - |
| 1788251912 | 16.11° C | 31% | 1014.8 hPa | 0 mm | - | 0 W/m² | - |
| 1788251607 | 16.67° C | 30% | 1014.7 hPa | 0 mm | - | 0 W/m² | - |
| 1788251305 | 16.67° C | 32% | 1014.8 hPa | 0 mm | - | 0 W/m² | - |
| 1788251001 | 16.67° C | 31% | 1015.2 hPa | 0 mm | - | 0 W/m² | - |
| 1788250695 | 17.22° C | 33% | 1015 hPa | 0 mm | - | 0 W/m² | - |
| 1788250390 | 17.78° C | 31% | 1015 hPa | 0 mm | - | 0 W/m² | - |
| 1788250085 | 17.78° C | 31% | 1015.1 hPa | 0 mm | - | 0 W/m² | - |
* Rain latest hour (hover to see other rain measurements)
** Current wind speed in m/s (hover to see current wind gust speed)